This is the latest recevied weather packets stored in our database for station/object N2ZVN. If no packets are shown the sender has not sent any weather packets the latest 10 day(s).
| Time | Temp. | Humidity | Pressure | Rain* | Wind** | Luminosity | Snow |
|---|---|---|---|---|---|---|---|
| 1788093628 | 19.44° C | 80% | 1020.1 hPa | 0 mm | - | 27 W/m² | - |
| 1788093325 | 19.44° C | 80% | 1020 hPa | 0 mm | - | 28 W/m² | - |
| 1788093020 | 18.89° C | 79% | 1020.1 hPa | 0 mm | - | 46 W/m² | - |
| 1788092716 | 18.89° C | 82% | 1020.1 hPa | 0 mm | - | 42 W/m² | - |
| 1788092412 | 18.89° C | 81% | 1020.1 hPa | 0 mm | - | 35 W/m² | - |
| 1788092108 | 19.44° C | 79% | 1019.9 hPa | 0 mm | - | 36 W/m² | - |
| 1788091807 | 18.89° C | 79% | 1020.2 hPa | 0 mm | - | 26 W/m² | - |
| 1788091503 | 18.89° C | 77% | 1020.5 hPa | 0 mm | - | 26 W/m² | - |
| 1788091199 | 18.89° C | 78% | 1020.1 hPa | 0 mm | - | 22 W/m² | - |
| 1788090895 | 18.89° C | 81% | 1020 hPa | 0 mm | - | 21 W/m² | - |
| 1788090590 | 18.89° C | 80% | 1019.6 hPa | 0 mm | - | 22 W/m² | - |
| 1788090287 | 18.89° C | 80% | 1019.7 hPa | 0 mm | - | 23 W/m² | - |
| 1788089986 | 18.33° C | 78% | 1019.7 hPa | 0 mm | - | 24 W/m² | - |
| 1788089681 | 18.33° C | 78% | 1019.7 hPa | 0 mm | - | 23 W/m² | - |
| 1788089377 | 18.33° C | 81% | 1019.9 hPa | 0 mm | - | 11 W/m² | - |
| 1788089073 | 18.33° C | 83% | 1020 hPa | 0 mm | - | 12 W/m² | - |
| 1788088769 | 17.78° C | 85% | 1020.1 hPa | 0 mm | - | 9 W/m² | - |
| 1788088464 | 17.78° C | 82% | 1020 hPa | 0 mm | - | 9 W/m² | - |
| 1788088160 | 17.78° C | 84% | 1020.1 hPa | 0 mm | - | 6 W/m² | - |
| 1788087855 | 18.33° C | 83% | 1019.9 hPa | 0 mm | - | 5 W/m² | - |
| 1788087554 | 18.33° C | 82% | 1020 hPa | 0 mm | - | 5 W/m² | - |
| 1788087251 | 17.78° C | 80% | 1019.8 hPa | 0 mm | - | 3 W/m² | - |
| 1788086947 | 17.78° C | 82% | 1019.9 hPa | 0 mm | - | 3 W/m² | - |
| 1788086643 | 18.33° C | 82% | 1019.9 hPa | 0 mm | - | 2 W/m² | - |
| 1788086342 | 18.33° C | 79% | 1020 hPa | 0 mm | - | 1 W/m² | - |
* Rain latest hour (hover to see other rain measurements)
** Current wind speed in m/s (hover to see current wind gust speed)